Weather History for KIWI - January, 2014

Change the Weather History Date:

Thursday, January 9, 2014

  Actual Average Record
Temperature  
Mean Temperature 14 °F -  
Max Temperature 25 °F 28 °F 52 °F (2008)
Min Temperature 1 °F 11 °F -9 °F (2004)
Degree Days  
Heating Degree Days 51    
Moisture  
Dew Point 2 °F    
Average Humidity 68    
Maximum Humidity 84    
Minimum Humidity 37    
Precipitation  
Precipitation 0.00 in - - ()
Sea Level Pressure  
Sea Level Pressure 30.52 in    
Wind  
Wind Speed 2 mph (WNW)    
Max Wind Speed 10 mph    
Max Gust Speed 21 mph    
Visibility 10 miles    
Events      
Averages and records for this station are not official NWS values.
T = Trace of Precipitation, MM = Missing Value Source: NWS Daily Summary

Daily Weather History Graph

Daily Weather History Graph

Search for Another Location

Airport or City:

Trip Planner

Search our weather history database for the weather conditions in past years. The results will help you decide how hot, cold, wet, or windy it might be!

Date:

Astronomy

Jan. 09, 2014 Rise Set
Actual Time 7:12 AM EST 4:19 PM EST
Civil Twilight 6:40 AM EST 4:52 PM EST
Nautical Twilight 6:04 AM EST 5:28 PM EST
Astronomical Twilight 5:29 AM EST 6:02 PM EST
Moon 11:49 AM EST (1/9) 1:11 AM EST (1/9)
Length of Visible Light 10h 12m
Length of Day
9h 07m
Waxing Gibbous, 66% of the Moon is Illuminated
Jan 9
Waxing Gibbous
Jan 15
Full
Jan 24
Last Quarter
Jan 30
New
Feb 6
First Quarter

Hourly Weather History & Observations

Time (EST) Temp. Windchill Dew Point Humidity Pressure Visibility Wind Dir Wind Speed Gust Speed Precip Events Conditions
12:53 AM 6.1 °F - 1.9 °F 83% 30.39 in 10.0 mi Calm Calm - N/A   Clear
1:53 AM 7.0 °F - 1.9 °F 80% 30.39 in 10.0 mi Calm Calm - N/A   Overcast
2:53 AM 7.0 °F - 3.0 °F 84% 30.39 in 10.0 mi Calm Calm - N/A   Overcast
3:53 AM 7.0 °F - 3.0 °F 84% 30.39 in 10.0 mi Calm Calm - N/A   Overcast
4:53 AM 8.1 °F - 3.9 °F 83% 30.41 in 9.0 mi Calm Calm - N/A   Overcast
5:53 AM 5.0 °F - 1.0 °F 84% 30.42 in 10.0 mi Calm Calm - N/A   Clear
6:53 AM 3.9 °F - -0.9 °F 80% 30.44 in 10.0 mi Calm Calm - N/A   Clear
7:53 AM 5.0 °F - 1.0 °F 84% 30.48 in 10.0 mi Calm Calm - N/A   Clear
8:53 AM 12.9 °F 6.9 °F 5.0 °F 71% 30.51 in 10.0 mi WSW 3.5 mph - N/A   Clear
9:53 AM 19.9 °F 12.1 °F 5.0 °F 52% 30.53 in 10.0 mi Variable 5.8 mph - N/A   Clear
10:53 AM 21.9 °F 11.0 °F 3.0 °F 44% 30.53 in 10.0 mi West 10.4 mph 16.1 mph N/A   Partly Cloudy
11:53 AM 23.0 °F 13.9 °F 1.9 °F 40% 30.52 in 10.0 mi WNW 8.1 mph 18.4 mph N/A   Partly Cloudy
12:53 PM 25.0 °F 16.3 °F 1.9 °F 37% 30.52 in 10.0 mi NW 8.1 mph 20.7 mph N/A   Clear
1:53 PM 25.0 °F 18.1 °F 1.9 °F 37% 30.54 in 10.0 mi Variable 5.8 mph - N/A   Clear
2:53 PM 24.1 °F 17.0 °F 1.9 °F 38% 30.57 in 10.0 mi Variable 5.8 mph - N/A   Clear
3:53 PM 23.0 °F - 1.0 °F 39% 30.59 in 10.0 mi Calm Calm - N/A   Clear
4:53 PM 19.0 °F - 3.9 °F 52% 30.61 in 10.0 mi Calm Calm - N/A   Clear
6:53 PM 10.9 °F - 3.9 °F 73% 30.63 in 10.0 mi Calm Calm - N/A   Clear
7:53 PM 8.1 °F 1.4 °F 3.0 °F 80% 30.63 in 10.0 mi NW 3.5 mph - N/A   Clear
8:53 PM 6.1 °F - 1.9 °F 83% 30.64 in 10.0 mi Calm Calm - N/A   Clear
9:53 PM 3.9 °F - -0.0 °F 84% 30.63 in 10.0 mi Calm Calm - N/A   Clear
10:53 PM 3.0 °F - -0.9 °F 84% 30.63 in 10.0 mi Calm Calm - N/A   Clear
11:53 PM 1.9 °F - -2.9 °F 80% 30.61 in 10.0 mi Calm Calm - N/A   Clear